Wind_Speed
13 13 13 12 12 13 12 12 13 12 13 15 16 17 17 18 17 18 18 19 20 20 20 20 20 20 21 20 21 21 21 20 20 20 21 21 22 22
13 13 13 13 13 14 14 14 15 15 14 15 16 18 18 18 18 19 19 19 20 19 18 19 20 20 20 20 21 21 21 21 21 21 21 22 22 23
13 14 13 14 13 14 14 15 16 16 16 16 17 18 18 18 18 19 19 20 19 19 18 18 18 18 19 19 19 19 19 20 21 21 22 23 23 23
14 14 14 15 15 15 15 15 16 16 17 18 18 20 20 19 19 19 20 20 19 19 19 19 19 19 18 19 19 20 20 20 20 20 21 22 22 23
16 15 15 16 16 16 16 16 16 17 18 19 20 20 21 21 21 21 21 21 21 20 20 19 19 19 19 19 19 19 19 20 21 21 21 22 21 22
18 17 17 17 17 18 18 18 18 19 20 20 21 21 22 22 23 22 22 21 21 21 21 21 21 20 21 20 20 20 20 21 22 22 22 22 22 22
20 20 19 19 19 19 20 20 21 21 21 21 22 22 22 23 23 23 22 22 22 22 23 23 22 22 22 22 21 22 22 22 22 22 23 23 23 23
21 22 21 21 21 21 22 22 22 22 22 23 23 23 24 24 24 24 24 24 24 24 24 24 23 23 23 23 23 23 23 23 23 23 23 23 23 23
23 22 22 24 24 24 24 24 24 25 25 25 25 25 25 25 25 25 26 26 25 25 25 24 24 24 24 24 24 24 24 24 24 24 24 24 23 23
25 24 25 25 26 26 26 26 27 27 27 27 27 27 27 27 27 27 27 27 27 26 26 25 25 25 25 26 26 25 25 24 25 25 25 25 24 24
26 26 26 27 28 29 29 28 28 29 28 28 27 28 28 29 28 28 28 27 28 28 27 27 26 27 27 27 27 27 27 26 26 25 25 25 25 24
27 27 28 29 29 29 29 29 29 30 29 29 29 29 30 30 30 30 30 29 29 29 30 29 29 29 29 29 28 29 29 28 27 27 27 27 26 26
29 30 30 30 29 29 29 29 29 30 30 30 30 31 31 31 31 30 30 30 30 31 31 31 32 32 31 31 31 30 30 30 30 29 29 28 28 28
30 30 30 30 30 30 31 31 31 31 31 31 31 31 32 32 32 32 32 32 32 32 33 33 33 34 34 33 32 32 31 31 31 31 31 31 30 30
31 31 32 32 32 33 32 33 33 33 33 33 33 33 33 34 34 33 33 33 33 33 34 34 35 35 35 34 34 33 33 32 32 31 32 32 31 31
32 33 33 34 34 34 34 33 33 33 34 34 34 34 34 34 35 35 34 34 34 34 34 34 34 34 34 34 34 34 34 33 34 34 33 32 32 32
33 33 33 34 34 33 33 33 33 33 33 33 33 33 34 34 34 34 34 34 33 33 34 34 34 35 34 34 34 34 34 34 34 33 34 34 33 32
33 33 33 33 33 34 34 34 34 33 34 34 34 34 35 35 35 35 34 34 34 34 35 35 35 35 35 34 33 33 33 33 33 33 32 32 32 32
33 34 34 34 35 35 34 35 34 34 34 35 35 35 35 35 35 35 35 35 35 35 35 34 34 34 34 34 33 33 33 32 32 32 32 32 31 31
34 35 35 35 35 35 35 35 35 35 35 35 35 35 35 35 34 34 34 34 34 34 33 33 33 33 33 33 32 33 33 33 33 32 32 32 32 31
35 35 35 36 36 36 36 36 36 36 35 35 34 35 35 35 35 34 34 34 33 33 32 32 32 32 33 33 33 32 32 32 33 33 32 32 32 32
35 35 36 36 36 36 36 37 37 37 37 36 36 35 35 35 34 33 33 33 32 33 32 32 32 32 32 33 33 32 32 31 32 32 33 33 32 31
36 36 37 36 36 36 37 37 37 37 37 37 36 36 35 35 34 34 34 34 33 33 33 33 33 33 32 32 32 32 31 31 31 31 32 33 32 31
Wind_Direction
304 303 300 298 296 298 299 296 294 293 292 295 293 293 293 293 293 294 296 294 295 294 290 290 289 287 285 282 281 277 276 276 274 269 267 266 265 265
308 309 303 300 297 297 297 298 298 298 295 293 294 294 294 294 293 294 295 295 296 296 294 293 293 292 291 285 284 281 276 273 272 271 269 267 266 264
303 304 305 303 301 300 299 298 297 296 296 296 294 296 296 295 294 293 294 295 295 297 297 297 298 296 293 291 289 284 278 276 276 274 272 270 268 266
304 302 302 303 301 299 297 297 296 297 296 296 296 295 295 294 294 294 296 295 295 296 296 296 296 296 295 295 290 284 280 278 279 278 278 277 274 271
307 305 301 301 301 299 297 297 297 296 296 295 296 295 295 294 294 294 294 294 294 294 293 292 294 294 293 293 291 286 281 280 280 280 280 280 278 275
302 300 298 298 298 298 297 298 297 297 297 296 294 294 294 296 294 292 292 292 293 293 292 290 290 291 291 292 292 288 284 281 279 278 279 280 279 278
296 296 295 295 295 295 296 297 297 298 298 296 295 295 295 294 295 292 292 291 291 291 292 290 288 288 288 289 290 290 287 283 281 279 277 277 278 276
295 294 294 294 293 292 292 294 294 296 298 298 296 296 296 295 295 294 292 290 290 289 290 288 287 286 287 287 288 289 287 285 283 282 280 279 278 276
294 294 293 293 291 289 290 291 292 293 294 296 295 294 294 294 294 295 294 291 288 287 287 286 284 285 285 285 285 286 286 285 283 283 281 279 278 277
292 292 292 291 289 290 290 290 290 291 292 293 293 294 294 293 294 293 292 292 292 288 285 285 283 283 284 285 285 285 286 285 284 283 280 278 277 276
290 291 292 291 290 289 289 290 290 290 290 292 292 293 293 292 292 292 291 290 290 290 287 284 283 282 283 284 283 284 284 284 284 283 280 278 277 276
289 290 291 291 290 289 289 288 288 289 289 290 292 293 292 292 290 290 291 290 288 287 286 284 283 282 282 282 282 282 283 283 282 281 280 278 275 274
289 289 290 291 291 290 290 290 289 288 289 290 291 292 292 291 290 289 289 290 289 287 285 283 283 283 282 282 282 282 281 280 280 279 279 278 276 275
288 290 290 292 292 291 291 290 289 288 289 290 291 292 291 290 289 289 289 290 290 288 286 284 283 283 282 282 282 281 281 279 279 279 279 278 276 274
288 289 291 293 293 293 293 292 291 290 291 290 290 291 290 290 290 291 292 291 290 289 287 286 284 283 283 282 281 280 279 278 278 278 279 278 275 273
288 290 291 292 292 291 293 294 292 292 292 290 290 290 290 290 290 291 291 292 291 289 288 287 285 283 282 282 281 279 278 278 277 277 277 276 273 271
289 289 289 291 292 294 295 294 294 294 295 294 292 291 291 290 291 290 290 291 290 289 289 287 287 286 283 282 282 280 279 278 278 278 276 274 271 269
289 290 290 292 293 295 296 295 294 294 295 294 293 292 291 290 289 288 288 289 290 289 289 287 286 285 283 283 282 281 279 278 277 277 276 275 272 268
290 291 292 293 295 297 296 296 295 295 294 294 293 292 291 290 290 289 288 289 289 288 288 288 288 287 285 283 281 280 279 277 276 275 275 275 274 270
291 292 292 293 294 295 296 295 295 295 294 293 293 292 292 291 291 290 290 290 290 288 287 287 287 288 287 285 282 280 278 278 277 276 275 274 273 270
291 292 293 293 292 293 294 294 294 294 293 292 292 292 291 291 290 290 289 289 288 288 288 287 287 287 287 286 284 281 279 277 277 276 276 274 272 271
291 292 294 294 294 293 293 293 294 294 293 291 291 291 291 291 291 290 290 289 288 287 286 286 287 287 287 287 285 282 278 276 277 277 275 274 273 272
291 292 294 294 294 294 293 293 293 293 292 292 292 292 291 290 289 289 288 288 287 286 285 285 286 287 287 286 285 283 280 278 278 278 276 275 274 273
Height
5860 5858 5857 5856 5855 5854 5853 5852 5852 5851 5850 5848 5847 5846 5844 5843 5842 5840 5838 5837 5835 5833 5831 5829 5828 5827 5826 5824 5824 5823 5823 5823 5822 5822 5823 5823 5823 5823
5857 5855 5854 5853 5852 5851 5850 5849 5848 5847 5846 5845 5843 5842 5840 5839 5837 5835 5834 5832 5830 5827 5825 5824 5823 5821 5820 5819 5818 5817 5817 5817 5817 5817 5817 5816 5816 5816
5854 5853 5851 5850 5849 5848 5846 5845 5844 5842 5841 5840 5839 5837 5835 5834 5832 5830 5829 5827 5824 5822 5821 5819 5818 5816 5815 5813 5812 5811 5811 5810 5810 5810 5810 5810 5809 5810
5851 5849 5848 5847 5845 5844 5843 5841 5840 5838 5837 5836 5834 5833 5831 5829 5827 5825 5823 5821 5819 5817 5816 5814 5813 5811 5810 5808 5807 5806 5805 5805 5804 5804 5804 5803 5803 5803
5848 5846 5845 5843 5842 5840 5839 5837 5836 5834 5832 5831 5829 5827 5825 5823 5821 5819 5817 5815 5814 5812 5810 5809 5807 5806 5804 5803 5802 5800 5799 5799 5799 5799 5798 5797 5797 5796
5844 5843 5841 5839 5838 5836 5834 5833 5831 5829 5827 5825 5823 5821 5819 5817 5815 5813 5811 5809 5808 5807 5805 5804 5802 5801 5799 5798 5796 5795 5794 5793 5793 5792 5791 5791 5790 5790
5840 5838 5836 5835 5833 5831 5829 5828 5826 5824 5822 5820 5818 5816 5813 5811 5809 5807 5806 5804 5802 5801 5799 5798 5796 5795 5793 5792 5791 5789 5788 5787 5786 5785 5784 5784 5783 5783
5835 5833 5831 5829 5827 5826 5824 5822 5820 5818 5816 5814 5812 5809 5807 5805 5803 5801 5799 5798 5796 5795 5793 5791 5790 5789 5787 5786 5784 5783 5782 5780 5779 5778 5778 5777 5776 5776
5828 5827 5825 5823 5821 5820 5818 5816 5814 5811 5810 5808 5805 5803 5801 5799 5797 5795 5792 5790 5789 5788 5786 5784 5783 5782 5781 5779 5778 5776 5775 5773 5772 5771 5771 5770 5769 5769
5822 5820 5818 5816 5814 5812 5810 5808 5806 5804 5802 5800 5798 5795 5793 5791 5789 5787 5785 5783 5781 5780 5778 5777 5776 5775 5774 5772 5771 5769 5768 5766 5765 5764 5763 5762 5762 5761
5815 5813 5811 5809 5807 5805 5803 5801 5799 5796 5794 5792 5790 5788 5785 5783 5781 5779 5777 5775 5774 5772 5770 5769 5768 5767 5766 5764 5763 5762 5760 5759 5758 5757 5756 5755 5754 5754
5808 5806 5804 5801 5799 5796 5795 5793 5790 5788 5786 5784 5782 5780 5777 5775 5773 5771 5769 5767 5765 5764 5762 5761 5759 5758 5758 5756 5755 5753 5752 5751 5750 5749 5748 5747 5746 5746
5800 5798 5796 5793 5790 5788 5786 5784 5782 5780 5778 5776 5774 5771 5769 5766 5764 5762 5760 5758 5756 5754 5753 5752 5751 5749 5748 5747 5746 5744 5743 5742 5741 5740 5739 5738 5737 5737
5792 5789 5787 5784 5782 5779 5777 5775 5773 5771 5769 5766 5764 5762 5759 5757 5755 5753 5751 5749 5747 5745 5743 5741 5741 5739 5738 5737 5736 5735 5734 5732 5731 5731 5730 5729 5728 5727
5783 5781 5778 5776 5773 5770 5768 5766 5763 5761 5759 5757 5755 5752 5750 5747 5745 5743 5741 5739 5737 5735 5733 5731 5730 5728 5727 5727 5726 5725 5724 5723 5721 5721 5720 5719 5719 5718
5774 5772 5769 5767 5764 5761 5759 5756 5753 5751 5749 5746 5744 5742 5739 5737 5735 5733 5731 5729 5727 5725 5722 5720 5719 5718 5716 5715 5715 5714 5712 5711 5711 5710 5709 5709 5708 5708
5765 5762 5760 5757 5754 5752 5749 5746 5744 5741 5738 5736 5733 5731 5729 5727 5725 5722 5720 5718 5717 5715 5713 5710 5708 5707 5706 5705 5704 5703 5701 5700 5699 5698 5698 5698 5698 5698
5755 5753 5750 5748 5745 5742 5740 5737 5734 5732 5729 5726 5723 5721 5719 5716 5714 5712 5710 5708 5706 5704 5702 5700 5698 5697 5696 5695 5693 5692 5691 5690 5689 5688 5687 5687 5687 5687
5745 5743 5740 5738 5735 5733 5731 5728 5725 5722 5719 5716 5713 5710 5708 5706 5703 5701 5699 5697 5695 5694 5692 5689 5687 5685 5684 5684 5683 5681 5680 5679 5678 5677 5677 5676 5677 5677
5736 5733 5731 5728 5726 5723 5721 5718 5715 5712 5709 5706 5703 5700 5697 5695 5693 5691 5689 5687 5685 5683 5681 5679 5677 5675 5674 5673 5672 5671 5669 5668 5667 5666 5666 5666 5666 5666
5725 5723 5721 5718 5716 5713 5710 5707 5705 5702 5698 5695 5692 5689 5687 5684 5682 5680 5678 5676 5674 5672 5670 5669 5667 5665 5663 5662 5661 5660 5659 5657 5656 5655 5655 5655 5655 5655
5715 5713 5710 5707 5705 5702 5699 5696 5694 5691 5687 5684 5681 5678 5676 5674 5671 5669 5667 5665 5663 5661 5660 5658 5656 5654 5653 5651 5650 5649 5648 5647 5646 5644 5644 5644 5643 5644
5705 5702 5699 5697 5694 5691 5688 5685 5682 5679 5676 5673 5670 5667 5664 5662 5660 5658 5656 5654 5652 5650 5649 5647 5645 5643 5642 5640 5639 5637 5636 5636 5635 5634 5634 5633 5632 5633